Location: Lynch Observatory
(39.9540°N, 75.1861°W)
Time: 14:45:11
(UTC-05:00)

ISS - Visible Passes

Search period start: 30 November 2023 00:00
Search period end: 10 December 2023 00:00
Orbit: 416 x 417 km, 51.6° (Epoch: 30 November)

Date Brightness Start Highest point End Pass type
(mag) Time Alt. Az. Time Alt. Az. Time Alt. Az.
30 Nov -2.0 17:43:31 10° NNW 17:45:54 18° NNE 17:46:26 17° NNE visible
01 Dec -2.2 18:31:21 10° NW 18:33:11 28° NNW 18:33:11 28° NNW visible
02 Dec -2.9 17:43:01 10° NW 17:46:04 31° NNE 17:47:09 25° ENE visible
02 Dec -0.4 19:19:46 10° WNW 19:20:06 12° WNW 19:20:06 12° WNW visible
03 Dec -3.2 18:31:04 10° WNW 18:34:14 57° SW 18:34:14 57° SW visible
04 Dec -3.9 17:42:29 10° NW 17:45:51 78° NE 17:48:38 14° ESE visible
04 Dec -0.3 19:21:07 10° WSW 19:21:37 11° WSW 19:21:37 11° WSW visible
05 Dec -1.1 18:31:12 10° W 18:33:42 20° SW 18:36:12 10° S visible
06 Dec -2.0 17:42:07 10° WNW 17:45:12 34° SW 17:48:15 10° SSE visible
08 Dec -0.3 17:42:42 10° WSW 17:44:08 12° SW 17:45:33 10° SSW visible
